Regional Weather Roundup
Issued by NWS

Home | Current Version | Previous Version | Graphics & Text | Print | Product List | Glossary Off
Versions: 1 2 3 4 5 6 7 8 9 10 11 12 13 14 15 16 17 18 19 20 21 22 23 24 25 26 27 28 29 30 31 32 33 34 35 36 37 38 39 40 41 42 43 44 45 46 47 48 49 50

000
ASUS43 KTOP 280359
RWRKS

WEATHER ROUNDUP FOR KANSAS
NATIONAL WEATHER SERVICE GOODLAND KS
1100 PM CDT SAT MAY 27 2017

NOTE:  "FAIR" INDICATES FEW OR NO CLOUDS BELOW 12,000 FEET WITH NO
SIGNIFICANT WEATHER AND/OR OBSTRUCTIONS TO VISIBILITY.

KSZ001>006-013>018-027>032-041>047-280500-
NORTHWEST KANSAS

CITY           SKY/WX    TMP DP  RH WIND       PRES   REMARKS
GOODLAND       CLEAR     52  50  93 W9        30.13R
HAYS           LGT RAIN  63  57  81 N9        30.03R
HILL CITY      MOCLDY    61  55  81 NW6       30.06R
RUSSELL        CLOUDY    64  57  78 N15       29.99R
$$

KSZ061>065-074>080-084>089-280500-
SOUTHWEST KANSAS

CITY           SKY/WX    TMP DP  RH WIND       PRES   REMARKS
DODGE CITY     LGT RAIN  60  56  86 W13       30.10R
ELKHART          N/A     52  43  72 MISG        N/A
GARDEN CITY    CLOUDY    55  52  89 SW9       30.11S
GREAT BEND     CLOUDY    65  56  72 NW15      30.01R
LIBERAL        CLOUDY    55  51  86 N25G35    30.07F
$$

KSZ066>073-081>083-090>101-280500-
SOUTHEAST KANSAS

CITY           SKY/WX    TMP DP  RH WIND       PRES   REMARKS
CHANUTE        CLOUDY    69  59  70 NE7       29.87R
COFFEYVILLE    CLOUDY    71  65  81 N7        29.84R
HUTCHINSON     CLOUDY    67  60  78 N9        29.93R
MEDICINE LODGE   N/A     69  58  67 N15       29.91R
NEWTON         CLEAR     65  61  87 N12       29.91R
PARSONS        CLOUDY    70  60  70 N7        29.86R
WICHITA INTL   PTCLDY    70  62  76 N15       29.89R
WICHITA JABRA  PTCLDY    67  62  84 N13       29.89R
WINFIELD       CLEAR     71  62  73 N9        29.90R
$$

KSZ007>012-019>026-033>040-048>060-102>105-280500-
NORTHEAST KANSAS

CITY           SKY/WX    TMP DP  RH WIND       PRES   REMARKS
CONCORDIA      CLEAR     63  56  78 N10       29.96R
EMPORIA        CLEAR     66  61  84 NE12      29.89R
LAWRENCE       CLEAR     65  63  93 NW8       29.85F
MANHATTAN      MOCLDY    65  61  87 N5        29.89F
OLATHE IND     MOCLDY    65  63  93 N8        29.87R
OLATHE EXE     MOCLDY    66  64  93 N5        29.87R
SALINA         PTCLDY    65  61  87 NW6       29.93R
TOPEKA BILLARD CLEAR     64  63  96 N9        29.86F
TOPEKA FORBES  CLEAR     66  62  87 N7        29.86F
$$




USA.gov is the U.S. government's official web portal to all federal, state and local government web resources and services.